Tracking 19212 objects as of 17-Jul-2018
HD Live streaming from Space Station
objects crossing your sky now

FENGYUN 1C DEB

Track FENGYUN 1C DEB now!
10-day predictions


NORAD ID: 29972
Int'l Code: 1999-025KW
Perigee: 689.2 km
Apogee: 823.9 km
Inclination: 99.0 °
Period: 99.8 minutes
Semi major axis: 7127 km
RCS: 0.0257 m2 (small)
Launch date: May 10, 1999
Source: People's Republic of China (PRC)
Launch site: Taiyaun Space Center, China (TSC)

Note: This is SATELLITE DEBRIS
aabbcc
Your satellite tracking list
Your tracking list is empty




NASA's NSSDC Master Catalog

Two Line Element Set (TLE):
1 29972U 99025KW  18198.05842774  .00000415  00000-0  13301-3 0  9999
2 29972  98.9556  33.1785 0094514 210.3246 271.0985 14.42763144603367
Source of the keplerian elements: AFSPC